Weather History for Gadsden, AL

Change the Weather History Date:

Wednesday, October 26, 2011

  Actual Average Record
Temperature  
Mean Temperature 56 °F -  
Max Temperature 75 °F 70 °F 87 °F (1940)
Min Temperature 37 °F 44 °F 28 °F (2013)
Degree Days  
Heating Degree Days 9    
Growing Degree Days 6 (Base 50)    
Moisture  
Dew Point 43 °F    
Average Humidity 67    
Maximum Humidity 93    
Minimum Humidity 31    
Precipitation  
Precipitation 0.00 in - - ()
Sea Level Pressure  
Sea Level Pressure 30.06 in    
Wind  
Wind Speed 2 mph (SW)    
Max Wind Speed 13 mph    
Max Gust Speed 17 mph    
Visibility 10 miles    
Events      
Averages and records for this station are not official NWS values.
T = Trace of Precipitation, MM = Missing Value Source: NWS Daily Summary

Daily Weather History Graph

Daily Weather History Graph

Search for Another Location

Airport:

Trip Planner

Search our weather history database for the weather conditions in past years. The results will help you decide how hot, cold, wet, or windy it might be!

Date:

Astronomy

Oct. 26, 2011 Rise Set
Actual Time 6:58 AM CDT 5:57 PM CDT
Civil Twilight 6:32 AM CDT 6:23 PM CDT
Nautical Twilight 6:03 AM CDT 6:52 PM CDT
Astronomical Twilight 5:34 AM CDT 7:21 PM CDT
Moon 6:43 AM CDT (10/26) 5:43 PM CDT (10/26)
Length of Visible Light 11h 50m
Length of Day
10h 59m
Waning Crescent, 0% of the Moon is Illuminated
Oct 26
Waning Crescent
Oct 26
New
Nov 2
First Quarter
Nov 10
Full
Nov 18
Last Quarter

Hourly Weather History & Observations

Time (CDT) Temp. Windchill Dew Point Humidity Pressure Visibility Wind Dir Wind Speed Gust Speed Precip Events Conditions
12:35 AM 44.6 °F - 42.8 °F 93% 30.12 in 10.0 mi Calm Calm - N/A   Clear
1:15 AM 42.8 °F - 39.2 °F 87% 30.12 in 10.0 mi Calm Calm - N/A   Clear
1:55 AM 42.8 °F - 39.2 °F 87% 30.12 in 10.0 mi Calm Calm - N/A   Clear
2:15 AM 42.8 °F - 39.2 °F 87% 30.11 in 10.0 mi Calm Calm - N/A   Clear
2:35 AM 42.8 °F 41.1 °F 39.2 °F 87% 30.12 in 10.0 mi West 3.5 mph - N/A   Clear
2:55 AM 42.8 °F - 37.4 °F 81% 30.11 in 10.0 mi Calm Calm - N/A   Clear
3:15 AM 42.8 °F - 39.2 °F 87% 30.11 in 10.0 mi Calm Calm - N/A   Clear
3:35 AM 42.8 °F - 39.2 °F 87% 30.11 in 10.0 mi Calm Calm - N/A   Clear
3:55 AM 41.0 °F - 37.4 °F 87% 30.11 in 10.0 mi Calm Calm - N/A   Clear
4:16 AM 39.2 °F - 37.4 °F 93% 30.11 in 10.0 mi Calm Calm - N/A   Clear
4:35 AM 39.2 °F - 37.4 °F 93% 30.11 in 10.0 mi Calm Calm - N/A   Clear
4:55 AM 39.2 °F - 37.4 °F 93% 30.12 in 10.0 mi Calm Calm - N/A   Clear
5:15 AM 39.2 °F - 35.6 °F 87% 30.12 in 10.0 mi Calm Calm - N/A   Clear
5:35 AM 39.2 °F - 35.6 °F 87% 30.12 in 10.0 mi Calm Calm - N/A   Clear
5:55 AM 39.2 °F - 35.6 °F 87% 30.12 in 10.0 mi Calm Calm - N/A   Clear
6:15 AM 39.2 °F - 35.6 °F 87% 30.12 in 10.0 mi Calm Calm - N/A   Clear
6:35 AM 37.4 °F - 35.6 °F 93% 30.13 in 10.0 mi Calm Calm - N/A   Clear
6:55 AM 39.2 °F - 35.6 °F 87% 30.13 in 10.0 mi Calm Calm - N/A   Clear
7:15 AM 39.2 °F - 35.6 °F 87% 30.13 in 10.0 mi Calm Calm - N/A   Clear
7:35 AM 39.2 °F - 37.4 °F 93% 30.13 in 10.0 mi Calm Calm - N/A   Clear
7:55 AM 42.8 °F - 39.2 °F 87% 30.13 in 10.0 mi Calm Calm - N/A   Clear
8:15 AM 44.6 °F - 41.0 °F 87% 30.13 in 10.0 mi Calm Calm - N/A   Clear
8:35 AM 46.4 °F - 42.8 °F 87% 30.13 in 10.0 mi Calm Calm - N/A   Clear
8:55 AM 48.2 °F - 44.6 °F 87% 30.14 in 10.0 mi Calm Calm - N/A   Clear
9:15 AM 51.8 °F - 46.4 °F 82% 30.14 in 10.0 mi Calm Calm - N/A   Clear
9:35 AM 55.4 °F - 46.4 °F 72% 30.14 in 10.0 mi Calm Calm - N/A   Clear
9:55 AM 57.2 °F - 48.2 °F 72% 30.14 in 10.0 mi Calm Calm - N/A   Clear
10:15 AM 60.8 °F - 48.2 °F 63% 30.13 in 10.0 mi South 3.5 mph - N/A   Clear
10:55 AM 64.4 °F - 48.2 °F 56% 30.12 in 10.0 mi SW 3.5 mph - N/A   Clear
11:15 AM 68.0 °F - 48.2 °F 49% 30.12 in 10.0 mi SW 3.5 mph - N/A   Clear
11:35 AM 69.8 °F - 48.2 °F 46% 30.12 in 10.0 mi WSW 6.9 mph - N/A   Clear
11:55 AM 71.6 °F - 48.2 °F 43% 30.10 in 10.0 mi WSW 8.1 mph - N/A   Clear
12:15 PM 73.4 °F - 48.2 °F 41% 30.09 in 10.0 mi SW 4.6 mph - N/A   Clear
12:35 PM 73.4 °F - 46.4 °F 38% 30.08 in 10.0 mi SW 4.6 mph - N/A   Clear
12:55 PM 73.4 °F - 46.4 °F 38% 30.07 in 10.0 mi SW 5.8 mph - N/A   Clear
1:15 PM 75.2 °F - 44.6 °F 34% 30.05 in 10.0 mi WSW 6.9 mph 17.3 mph N/A   Clear
1:35 PM 75.2 °F - 44.6 °F 34% 30.04 in 10.0 mi SSW 5.8 mph - N/A   Clear
1:55 PM 75.2 °F - 42.8 °F 31% 30.03 in 10.0 mi WSW 10.4 mph - N/A   Clear
2:15 PM 75.2 °F - 42.8 °F 31% 30.02 in 10.0 mi SW 4.6 mph - N/A   Clear
2:35 PM 75.2 °F - 44.6 °F 34% 30.01 in 10.0 mi SW 6.9 mph - N/A   Clear
2:55 PM 75.2 °F - 44.6 °F 34% 30.00 in 10.0 mi SW 6.9 mph - N/A   Clear
3:15 PM 75.2 °F - 44.6 °F 34% 30.00 in 10.0 mi West 9.2 mph - N/A   Clear
3:35 PM 75.2 °F - 46.4 °F 36% 29.99 in 10.0 mi WSW 12.7 mph - N/A   Clear
3:55 PM 75.2 °F - 44.6 °F 34% 29.98 in 10.0 mi WSW 9.2 mph - N/A   Clear
4:16 PM 75.2 °F - 44.6 °F 34% 29.98 in 10.0 mi SW 6.9 mph - N/A   Clear
4:35 PM 73.4 °F - 44.6 °F 36% 29.97 in 10.0 mi WSW 5.8 mph - N/A   Clear
4:55 PM 73.4 °F - 46.4 °F 38% 29.97 in 10.0 mi Calm Calm - N/A   Clear
5:15 PM 73.4 °F - 44.6 °F 36% 29.97 in 10.0 mi SW 4.6 mph - N/A   Clear
5:35 PM 69.8 °F - 46.4 °F 43% 29.97 in 10.0 mi SW 3.5 mph - N/A   Clear
5:55 PM 64.4 °F - 46.4 °F 52% 29.96 in 10.0 mi Calm Calm - N/A   Clear
6:15 PM 62.6 °F - 46.4 °F 55% 29.97 in 10.0 mi South 4.6 mph - N/A   Clear
7:15 PM 55.4 °F - 46.4 °F 72% 29.97 in 10.0 mi Calm Calm - N/A   Clear
7:35 PM 55.4 °F - 46.4 °F 72% 29.97 in 10.0 mi Calm Calm - N/A   Clear
7:55 PM 55.4 °F - 46.4 °F 72% 29.97 in 10.0 mi Calm Calm - N/A   Clear
8:15 PM 53.6 °F - 46.4 °F 77% 29.98 in 10.0 mi Calm Calm - N/A   Clear
8:35 PM 53.6 °F - 46.4 °F 77% 29.98 in 10.0 mi Calm Calm - N/A   Clear
8:55 PM 51.8 °F - 46.4 °F 82% 29.98 in 10.0 mi Calm Calm - N/A   Clear
9:15 PM 51.8 °F - 46.4 °F 82% 29.98 in 10.0 mi Calm Calm - N/A   Clear
9:35 PM 51.8 °F - 44.6 °F 76% 29.98 in 10.0 mi Calm Calm - N/A   Clear
9:55 PM 51.8 °F - 44.6 °F 76% 29.98 in 10.0 mi Calm Calm - N/A   Clear
10:15 PM 48.2 °F - 44.6 °F 87% 29.98 in 10.0 mi Calm Calm - N/A   Clear
10:35 PM 48.2 °F - 44.6 °F 87% 29.98 in 10.0 mi Calm Calm - N/A   Clear
11:15 PM 48.2 °F - 44.6 °F 87% 29.98 in 10.0 mi Calm Calm - N/A   Clear
11:35 PM 48.2 °F - 44.6 °F 87% 29.97 in 10.0 mi Calm Calm - N/A   Clear
11:55 PM 48.2 °F - 44.6 °F 87% 29.98 in 10.0 mi Calm Calm - N/A   Clear